Weather History for Clayton Lake, ME

Change the Weather History Date:

Wednesday, March 19, 2014

  Actual Average Record
Temperature  
Mean Temperature 8 °F -  
Max Temperature 32 °F 32 °F 55 °F (2012)
Min Temperature -14 °F 8 °F -14 °F (2014)
Degree Days  
Heating Degree Days 56    
Moisture  
Dew Point -3 °F    
Average Humidity 54    
Maximum Humidity 90    
Minimum Humidity 27    
Precipitation  
Precipitation 0.04 in - - ()
Sea Level Pressure  
Sea Level Pressure 30.34 in    
Wind  
Wind Speed 2 mph (ESE)    
Max Wind Speed 9 mph    
Max Gust Speed 17 mph    
Averages and records for this station are not official NWS values.
T = Trace of Precipitation, MM = Missing Value Source: NWS Daily Summary

Daily Weather History Graph

Daily Weather History Graph

Search for Another Location

Airport:

Trip Planner

Search our weather history database for the weather conditions in past years. The results will help you decide how hot, cold, wet, or windy it might be!

Date:

Astronomy

Mar. 19, 2014 Rise Set
Actual Time 6:43 AM EDT 6:49 PM EDT
Civil Twilight 6:13 AM EDT 7:19 PM EDT
Nautical Twilight 5:37 AM EDT 7:54 PM EDT
Astronomical Twilight 5:01 AM EDT 8:31 PM EDT
Moon 10:17 PM EDT (3/19) 7:55 AM EDT (3/19)
Length of Visible Light 13h 06m
Length of Day
12h 06m
Waning Gibbous, 91% of the Moon is Illuminated
Mar 19
Waning Gibbous
Mar 23
Last Quarter
Mar 30
New
Apr 7
First Quarter
Apr 15
Full

Hourly Weather History & Observations

Time (EDT) Temp. Windchill Dew Point Humidity Pressure Visibility Wind Dir Wind Speed Gust Speed Precip Events Conditions
12:16 AM -5.8 °F - -9.9 °F 82% 30.41 in - Calm Calm - 0.00 in   Unknown
1:16 AM -7.6 °F - -12.5 °F 79% 30.42 in - Calm Calm - N/A   Unknown
2:16 AM -7.2 °F - -10.8 °F 84% 30.43 in - Calm Calm - N/A   Unknown
3:16 AM -12.1 °F - -16.2 °F 82% 30.43 in - Calm Calm - N/A   Unknown
4:16 AM -12.6 °F - -16.8 °F 82% 30.43 in - Calm Calm - 0.00 in   Unknown
5:16 AM -12.8 °F - -17.1 °F 81% 30.46 in - Calm Calm - N/A   Unknown
6:16 AM -14.8 °F - -19.7 °F 79% 30.46 in - Calm Calm - N/A   Unknown
7:16 AM -13.0 °F - -17.5 °F 80% 30.50 in - Calm Calm - N/A   Unknown
8:16 AM -5.1 °F - -11.7 °F 73% 30.51 in - Calm Calm - 0.02 in   Unknown
9:16 AM 9.7 °F - -3.1 °F 56% 30.51 in - Calm Calm - N/A   Unknown
10:16 AM 23.7 °F 17.8 °F -0.9 °F 34% 30.48 in - Variable 4.6 mph - N/A   Unknown
11:16 AM 24.1 °F 17.0 °F -1.8 °F 32% 30.44 in - Variable 5.8 mph - N/A   Unknown
12:16 PM 25.5 °F 19.9 °F -3.5 °F 28% 30.42 in - Variable 4.6 mph - N/A   Unknown
1:16 PM 26.8 °F 22.8 °F 0.3 °F 32% 30.39 in - Variable 3.5 mph - N/A   Unknown
2:16 PM 29.8 °F 23.0 °F -0.2 °F 28% 30.33 in - SE 6.9 mph - N/A   Unknown
3:16 PM 30.7 °F 22.6 °F 1.2 °F 28% 30.30 in - ESE 9.2 mph 13.8 mph N/A   Unknown
4:16 PM 31.8 °F 27.3 °F 1.0 °F 27% 30.26 in - Variable 4.6 mph 11.5 mph N/A   Unknown
5:16 PM 31.6 °F 24.4 °F 2.1 °F 29% 30.22 in - East 8.1 mph 15.0 mph N/A   Unknown
6:16 PM 31.3 °F 25.6 °F 3.2 °F 30% 30.22 in - Variable 5.8 mph - N/A   Unknown
7:16 PM 30.0 °F 23.2 °F 2.8 °F 31% 30.17 in - Variable 6.9 mph 13.8 mph N/A   Unknown
8:16 PM 30.0 °F 24.1 °F 3.7 °F 33% 30.14 in - Variable 5.8 mph - N/A   Unknown
9:16 PM 30.2 °F 26.7 °F 6.1 °F 36% 30.11 in - Variable 3.5 mph - N/A   Unknown
10:16 PM 28.2 °F 19.5 °F 18.1 °F 66% 30.09 in - ESE 9.2 mph 17.3 mph N/A   Unknown
11:16 PM 26.2 °F 20.7 °F 23.5 °F 90% 30.06 in - Variable 4.6 mph 15.0 mph 0.02 in   Unknown